Location: Bouchavesnes-Bergen
(49.9859°N, 2.9203°E)
Time: 00:46:56
(UTC+00:00)

IDEFIX/ARIANE 42P - Pass Details

Date: 01 July 2021
Orbit: 784 x 803 km, 98.4° (Epoch: 30 July)

Event Time Altitude Azimuth Distance (km) Brightness Sun altitude
Rises 01:25:37 0° 25° (NNE) 3,306 7.8 -14.0°
Reaches altitude 10° 01:28:28 10° 40° (NE) 2,368 6.3 -13.9°
Maximum altitude 01:32:31 22° 91° (E) 1,657 4.5 -13.6°
Drops below altitude 10° 01:36:32 10° 142° (SE) 2,346 4.8 -13.3°
Enters shadow 01:38:22 - 153° (SSE) 2,934 5.2 -13.2°
